Location: Taukkyan
(23.1052°N, 94.0030°E)
Time: 10:14:25
(UTC+00:00)

Atlas Centaur 2 - Pass Details

Date: 06 July 2020
Orbit: 459 x 1310 km, 30.4° (Epoch: 14 August)

Event Time Altitude Azimuth Distance (km) Brightness Sun altitude
Rises 15:17:51 0° 290° (WNW) 3,303 6.1 -31.4°
Reaches altitude 10° 15:20:13 10° 296° (WNW) 2,497 5.4 -31.7°
Maximum altitude 15:26:09 50° 11° (N) 1,272 3.2 -32.6°
Enters shadow 15:27:02 47° 34° (NE) 1,341 3.2 -32.7°
